Weather History for Nellis AFB, NV

Change the Weather History Date:

Thursday, January 24, 2013

  Actual Average Record
Temperature  
Mean Temperature 51 °F -  
Max Temperature 55 °F 58 °F 69 °F (2000)
Min Temperature 47 °F 36 °F 26 °F (2002)
Degree Days  
Heating Degree Days 14    
Growing Degree Days 1 (Base 50)    
Moisture  
Dew Point 36 °F    
Average Humidity 56    
Maximum Humidity 78    
Minimum Humidity 32    
Precipitation  
Precipitation 0.01 in - - ()
Sea Level Pressure  
Sea Level Pressure 30.20 in    
Wind  
Wind Speed 3 mph (NE)    
Max Wind Speed 9 mph    
Max Gust Speed -    
Visibility 10 miles    
Events Rain    
Averages and records for this station are not official NWS values.
T = Trace of Precipitation, MM = Missing Value Source: NWS Daily Summary

Daily Weather History Graph

Daily Weather History Graph

Search for Another Location

Airport:

Trip Planner

Search our weather history database for the weather conditions in past years. The results will help you decide how hot, cold, wet, or windy it might be!

Date:

Astronomy

Jan. 24, 2013 Rise Set
Actual Time 6:46 AM PST 4:58 PM PST
Civil Twilight 6:19 AM PST 5:26 PM PST
Nautical Twilight 5:47 AM PST 5:57 PM PST
Astronomical Twilight 5:17 AM PST 6:27 PM PST
Moon 3:05 PM PST (1/24) 4:46 AM PST (1/24)
Length of Visible Light 11h 07m
Length of Day
10h 12m
Waxing Gibbous, 95% of the Moon is Illuminated
Jan 24
Waxing Gibbous
Jan 26
Full
Feb 3
Last Quarter
Feb 9
New
Feb 17
First Quarter

Hourly Weather History & Observations

Time (PST) Temp. Dew Point Humidity Pressure Visibility Wind Dir Wind Speed Gust Speed Precip Events Conditions
12:58 AM 49.3 °F 21.6 °F 34% 30.14 in 10.0 mi NE 3.5 mph - N/A   Clear
1:58 AM 49.8 °F 21.0 °F 32% 30.14 in 10.0 mi NW 2.3 mph - N/A   Partly Cloudy
2:58 AM 49.6 °F 22.3 °F 34% 30.14 in 10.0 mi North 5.8 mph - N/A   Partly Cloudy
3:58 AM 50.5 °F 21.9 °F 33% 30.12 in 10.0 mi SW 4.6 mph - N/A   Mostly Cloudy
4:58 AM 50.9 °F 23.2 °F 34% 30.13 in 10.0 mi Calm Calm - N/A   Overcast
5:31 AM 50.0 °F 24.8 °F 37% 30.15 in 10.0 mi East 1.2 mph - N/A Rain Light Rain
5:40 AM 48.2 °F 32.0 °F 54% 30.16 in 10.0 mi SE 3.5 mph - N/A   Mostly Cloudy
5:58 AM 48.4 °F 30.2 °F 49% 30.14 in 10.0 mi Calm Calm - 0.00 in   Mostly Cloudy
6:39 AM 48.2 °F 33.8 °F 58% 30.17 in 10.0 mi Calm Calm - N/A Rain Light Rain
6:58 AM 48.9 °F 34.7 °F 58% 30.17 in 10.0 mi NW 2.3 mph - 0.00 in Rain Light Rain
7:07 AM 48.2 °F 35.6 °F 62% 30.17 in 10.0 mi NW 2.3 mph - N/A   Mostly Cloudy
7:58 AM 47.7 °F 38.3 °F 70% 30.19 in 10.0 mi Calm Calm - 0.00 in   Scattered Clouds
8:58 AM 49.6 °F 39.2 °F 67% 30.22 in 10.0 mi Calm Calm - N/A   Mostly Cloudy
9:24 AM 50.0 °F 37.4 °F 62% 30.23 in 10.0 mi North 6.9 mph - N/A Rain Light Rain
9:45 AM 51.8 °F 37.4 °F 58% 30.24 in 10.0 mi NNW 2.3 mph - N/A   Mostly Cloudy
9:58 AM 51.6 °F 40.8 °F 67% 30.22 in 10.0 mi Calm Calm - 0.00 in   Overcast
10:58 AM 54.1 °F 34.5 °F 48% 30.24 in 10.0 mi Calm Calm - N/A   Overcast
11:58 AM 54.9 °F 35.6 °F 48% 30.21 in 10.0 mi Calm Calm - N/A   Overcast
12:06 PM 55.4 °F 37.4 °F 51% 30.23 in 10.0 mi Calm Calm - N/A Rain Light Rain
12:50 PM 53.6 °F 39.2 °F 58% 30.21 in 10.0 mi SE 2.3 mph - N/A   Overcast
12:58 PM 54.3 °F 38.7 °F 55% 30.20 in 10.0 mi Calm Calm - 0.00 in   Overcast
1:18 PM 55.4 °F 41.0 °F 58% 30.21 in 10.0 mi Variable 3.5 mph - N/A Rain Light Rain
1:29 PM 55.4 °F 41.0 °F 58% 30.22 in 10.0 mi East 2.3 mph - N/A   Mostly Cloudy
1:58 PM 55.2 °F 40.6 °F 58% 30.21 in 10.0 mi Calm Calm - 0.00 in   Overcast
2:20 PM 55.4 °F 39.2 °F 54% 30.21 in 10.0 mi East 5.8 mph - N/A Rain Light Rain
2:37 PM 55.4 °F 41.0 °F 58% 30.21 in 10.0 mi NE 8.1 mph - N/A   Mostly Cloudy
2:58 PM 55.0 °F 38.8 °F 54% 30.20 in 10.0 mi ENE 9.2 mph - 0.00 in   Overcast
3:58 PM 54.9 °F 40.3 °F 58% 30.20 in 10.0 mi ENE 6.9 mph - N/A   Overcast
4:35 PM 53.6 °F 41.0 °F 62% 30.20 in 10.0 mi ENE 8.1 mph - N/A   Light Drizzle
4:45 PM 53.6 °F 41.0 °F 62% 30.20 in 10.0 mi East 8.1 mph - N/A   Scattered Clouds
4:58 PM 53.6 °F 42.1 °F 65% 30.19 in 10.0 mi ENE 9.2 mph - 0.00 in   Partly Cloudy
5:58 PM 53.2 °F 40.5 °F 62% 30.24 in 10.0 mi ESE 5.8 mph - N/A   Mostly Cloudy
6:58 PM 54.0 °F 39.9 °F 59% 30.25 in 10.0 mi ESE 2.3 mph - 0.01 in   Overcast
7:58 PM 51.6 °F 41.0 °F 67% 30.24 in 10.0 mi ENE 5.8 mph - N/A   Overcast
8:58 PM 52.5 °F 40.5 °F 64% 30.25 in 10.0 mi East 8.1 mph - N/A   Overcast
9:58 PM 52.2 °F 40.3 °F 64% 30.27 in 10.0 mi NNE 3.5 mph - N/A   Overcast
10:58 PM 50.2 °F 43.7 °F 78% 30.27 in 10.0 mi NNW 3.5 mph - N/A   Overcast
11:58 PM 49.6 °F 42.4 °F 76% 30.25 in 10.0 mi Calm Calm - N/A   Overcast